www.pogodaiklimat.ru

Погода и климат >> Архив погоды >> Мали >> Kita


ПОГОДА в Kita

  • Прогноз погоды в Kita
  • Монитор погоды в Kita
  • Климат города

АРХИВ ПОГОДЫ в Kita

Время (UTC), дата Ветер
(напр.,м/с)
 
Видим.   Явления Облачность Т
(С)
Тd
(С)
f
(%)
Тe
(С)
Тes
(С)
Комфортность P
(гПа)
Po
(гПа)
Тmin
(С)
Tmax
(С)
R
(мм)
R24
(мм)
S
(см)
06 19.05 штиль 0 10 км 8/1 900 м
[Sc Ac lent Ci sp]
+28.7 +22.8 70 +38 +38 очень
душно
1008.7 972.3 +22.8
09 19.05 Ю 2 10 км 8/3 900 м
[Sc Ac lent Ci sp]
+31.0 +22.3 60 +40 +44 очень
душно
1011.2 974.6
12 19.05 З 2 10 км 8/4 900 м
[Cu med, cong Ac lent Ci sp]
+36.0 +22.5 46 +45 +54 опасность
перегрева
1010.1 973.9
15 19.05 СВ 2 10 км гроза без осадков {дождь} 8/5 900 м
[Cb cap Ac lent Ci sp]
+33.2 +22.9 55 +43 +48 опасность
перегрева
1008.3 971.9
18 19.05 штиль 0 10 км {гроза, дождь} 9/4 900 м
[Sc Ac As]
+31.0 +20.7 54 +38 +38 очень
душно
1008.6 971.9 +36.5 0.5
21 19.05 штиль 0 10 км гроза без осадков 8/5 900 м
[Cb cap Ac lent]
+29.5 +21.4 62 +37 +37 очень
душно
1010.2 973.6
00 20.05 ЮЗ 2 10 км {гроза} 9/4 900 м
[Sc Ac As]
+29.5 +22.2 65 +38 +38 очень
душно
1011.2 974.8
03 20.05 ЮЗ 2 10 км 8/3 900 м
[Sc Ac lent]
+28.5 +21.9 67 +37 +37 очень
душно
1009.7 973.2
06 20.05 штиль 0 10 км 8/3 900 м
[Sc Ac lent]
+27.5 +23.9 81 +38 +38 очень
душно
1011.3 974.4 +27.0 0.5
09 20.05 С 3 10 км 8/4 900 м
[Cu Sc Ac lent Ci sp]
+31.0 +22.3 60 +40 +43 очень
душно
1012.9 976.1
12 20.05 З 2 10 км 6/4 900 м
[Sc Ac lent Ci sp]
+36.0 +22.3 45 +45 +55 опасность
перегрева
1011.0 974.5
15 20.05 штиль 0 10 км в посл. час гроза 8/5 900 м
[Cb cap Ac lent Ci sp]
+36.4 +22.1 44 +45 +52 опасность
перегрева
1008.8 972.4
18 20.05 ЮВ 2 10 км {гроза} 8/4 900 м
[Cu med, cong Ac lent Ci sp]
+33.4 +22.2 52 +42 +43 опасность
перегрева
1009.6 973.0 +38.2
21 20.05 штиль 0 10 км 6/3 900 м
[Sc Ac lent Ci sp]
+30.8 +21.6 58 +39 +39 очень
душно
1011.1 974.4
00 21.05 З 2 10 км 8/3 900 м
[Sc Ac As]
+30.1 +22.3 63 +39 +39 очень
душно
1012.1 975.7
03 21.05 ЮЗ 2 10 км гроза без осадков 8/4 900 м
[Cb cap Ac As]
+29.0 +22.3 67 +38 +38 очень
душно
1010.8 974.4
06 21.05 З 2 10 км {гроза} 8/4 900 м
[Sc Ac As Ci sp]
+27.3 +22.0 73 +35 +35 очень
душно
1011.6 974.9 +26.8
09 21.05 Ю 2 10 км {дождь} 8/4 900 м
[Sc Ac lent Ci sp]
+28.0 +23.7 77 +38 +42 очень
душно
1014.4 977.4
12 21.05 штиль 0 10 км {дождь} 6/0
[Ci sp]
+34.5 +21.5 47 +42 +68 опасность
перегрева
1012.7 976.1 0.3
15 21.05 З 2 10 км 6/3 900 м
[Sc Ac lent Ci sp]
+37.5 +20.9 38 +44 +52 опасность
перегрева
1009.3 973.1
18 21.05 штиль 0 10 км 6/3 900 м
[Sc Ac lent Ci sp]
+37.3 +21.9 41 +45 +46 опасность
перегрева
1008.0 971.6 +38.5 0.3
21 21.05 штиль 0 10 км 6/3 900 м
[Sc Ac lent Ci sp]
+33.5 +22.8 54 +44 +44 опасность
перегрева
1010.3 973.8
00 22.05 Ю 2 10 км 5/1 900 м
[Sc Ac lent Ci sp]
+31.0 +23.1 63 +41 +41 опасность
перегрева
1011.1 974.7
03 22.05 штиль 0 10 км 5/1 900 м
[Sc Ac lent Ci sp]
+29.0 +23.3 71 +39 +39 очень
душно
1009.2 972.9
06 22.05 Ю 2 10 км 5/1 900 м
[Sc Ac lent Ci sp]
+28.0 +23.7 77 +38 +38 очень
душно
1008.8 972.4 +27.3 0.3
09 22.05 ЮЗ 2 10 км 4/0
[Ac lent Ci sp]
+32.0 +22.5 57 +41 +47 опасность
перегрева
1010.6 974.2
12 22.05 ЮЗ 3 10 км 4/1 900 м
[Sc Ci sp]
+37.8 +22.0 40 +46 +60 опасность
перегрева
1009.2 973.1
15 22.05 С 3 10 км 4/4 900 м
[Sc Ci sp]
+39.9 +20.9 34 +46 +54 опасность
перегрева
1005.8 969.7
18 22.05 штиль 0 10 км гроза, ливневой дождь 10/6 900 м
[Cb cap Ac As]
+33.8 +22.2 51 +43 +43 опасность
перегрева
1008.7 971.7 +40.9 5
21 22.05 штиль 0 10 км слабый дождь {гроза} 10/5 900 м
[Sc Ac As]
+26.8 +24.4 87 +38 +38 очень
душно
1010.9 974.0
00 23.05 штиль 0 10 км {гроза, дождь} 10/4 900 м
[Sc Ac As]
+26.5 +23.6 84 +36 +36 очень
душно
1009.0 972.6 9
03 23.05 З 2 10 км гроза без осадков {дождь} 10/4 900 м
[Cb cap Ac As]
+24.9 +21.9 83 +32 +32 очень
душно
1008.3 971.9
06 23.05 штиль 0 10 км {гроза, дождь} 10/4 900 м
[Sc Ac As]
+25.0 +23.1 89 +33 +33 очень
душно
1009.3 972.1 +24.0 16
09 23.05 штиль 0 10 км {гроза, дождь} 9/5 900 м
[Sc Ac As]
+27.5 +23.5 79 +37 +40 очень
душно
1010.6 973.7
12 23.05 штиль 0 10 км {гроза, дождь} 8/5 900 м
[Sc Ac lent Ci sp]
+31.0 +24.5 68 +43 +53 опасность
перегрева
1009.9 973.1 0.7
18 23.05 штиль 0 10 км 9/4 900 м
[Sc Ac As]
+34.0 +26.8 66 +51 +52 опасность
перегрева
1008.1 971.4 +35.0 0.7
21 23.05 штиль 0 10 км 6/3 900 м
[Sc Ac lent Ci sp]
+31.0 +26.9 79 +48 +48 опасность
перегрева
1009.6 972.8
00 24.05 штиль 0 10 км гроза без осадков 8/4 900 м
[Cb cap Ac lent]
+30.5 +24.1 69 +42 +42 опасность
перегрева
1009.9 973.5
03 24.05 штиль 0 10 км {гроза} 8/3 900 м
[Sc Ac As]
+28.5 +23.5 74 +39 +39 очень
душно
1008.5 972.0
06 24.05 штиль 0 10 км {гроза} 8/5 900 м
[Sc Ac lent Ci sp]
+28.0 +23.7 77 +38 +38 очень
душно
1009.0 972.5 +27.0 0.7
09 24.05 ЮЗ 2 10 км слабый дождь 9/4 900 м
[Sc Ac As]
+29.0 +24.0 74 +40 +42 очень
душно
1011.3 974.6
12 24.05 ЮЗ 2 10 км {дождь} 6/0
[Ac lent Ci sp]
+33.5 +23.6 56 +44 +59 опасность
перегрева
1010.1 973.8 0.0
15 24.05 ЮЗ 2 10 км 6/3 900 м
[Sc Ac lent Ci sp]
+36.6 +23.0 46 +47 +55 опасность
перегрева
1008.6 972.2
18 24.05 Ю 2 10 км 9/5 900 м
[Sc Ac As]
+28.5 +21.1 64 +36 +36 очень
душно
1010.0 973.2 +36.6 0.0
21 24.05 ЮЗ 2 10 км 9/5 900 м
[Sc Ac As]
+26.0 +21.6 77 +33 +33 очень
душно
1011.3 974.3
00 25.05 ЮЗ 2 10 км 9/3 900 м
[Sc Ac As]
+26.0 +21.6 77 +33 +33 очень
душно
1011.0 974.2
03 25.05 Ю 2 10 км 9/3 900 м
[Sc Ac As]
+25.5 +21.8 80 +33 +33 очень
душно
1009.3 972.8
06 25.05 штиль 0 10 км 9/4 900 м
[Sc Ac lent Ci sp]
+25.0 +22.0 83 +32 +32 очень
душно
1010.2 973.2 +24.0
09 25.05 ЮЗ 2 10 км 8/3 900 м
[Sc Ac lent Ci sp]
+28.0 +22.2 71 +37 +40 очень
душно
1012.3 975.2
12 25.05 ЮЗ 2 10 км 5/0
[Ac lent Ci sp]
+34.0 +22.6 51 +43 +58 опасность
перегрева
1011.3 974.6
15 25.05 ЮЗ 2 10 км 5/1 900 м
[Sc Ci sp]
+36.3 +22.3 45 +45 +57 опасность
перегрева
1008.9 972.3
18 25.05 штиль 0 10 км 5/0
[Ac lent Ci sp]
+36.0 +22.5 46 +45 +46 опасность
перегрева
1008.1 971.5 +37.0
21 25.05 штиль 0 10 км 5/0
[Ac lent Ci sp]
+33.0 +23.8 59 +45 +45 опасность
перегрева
1009.9 973.4
00 26.05 штиль 0 10 км 5/0
[Ac lent Ci sp]
+31.0 +24.7 69 +44 +44 опасность
перегрева
1011.1 974.7
03 26.05 штиль 0 10 км 5/0
[Ac lent Ci sp]
+29.5 +23.8 71 +40 +40 очень
душно
1010.0 973.7

 

Местоположение метеостанции Kita (Мали): широта 13.07 долгота -9.47 высота над уровнем моря 334 м.

В архиве по умолчанию представлена погода в Kita за последнюю неделю. Архивные данные за месяц целиком и за предыдущие месяцы, начиная с января 2011 года, Вы можете получить, выбрав интересующий диапазон дат из раскрывающегося списка и нажав кнопку "Ввод!".

Внимание! Время в таблицах - всемирное. Для получения местного времени необходимо прибавить поправку, которая в Kita равна 0 ч.

Смотрите также архив погоды в соседних городах и на ближайших метеорологических станциях:

Погода в Bamako (Мали) (175 км)
Погода в Kenieba (Мали) (192 км)
Погода в Nioro Du Sahel (Мали) (241 км)
Погода в Yelimane (Мали) (257 км)
Погода в Kayes (Мали) (260 км)
Погода в Bougouni (Мали) (282 км)
Погода в Kedougou (Сенегал) (302 км)
Погода в Nara (Мали) (332 км)
Погода в Segou (Мали) (361 км)
Погода в Aioun el Atrouss (Мавритания) (404 км)

Пояснения к столбцам:

Ветер - указаны скорость ветра в м/с - средняя за 10 мин, порывы в срок и между сроками (в фигурных скобках) и направление, откуда дует ветер: С - северный, СВ - северо-восточный, В - восточный, ЮВ - юго-восточный, Ю - южный, ЮЗ - юго-западный, З - западный, СЗ - северо-западный.
Видимость - горизонтальная дальность видимости в метрах или километрах. При видимости от 1 до 10 км при отсутствии осадков обычно наблюдается дымка, при ухудшении видимости до 1 км и менее - туман. В сухую погоду видимость может ухудшаться дымом, пылью или мглою.
Явления - указаны атмосферные явления, наблюдавшиеся в срок или в последний час перед сроком; фигурными скобками обозначены явления, наблюдавшиеся между сроками (за 1-3 часа до срока); квадратными скобками обозначены град или гололедные отложения с указанием их диаметра в мм.
Облачность - указаны через наклонную черту общая и нижняя облачность в баллах и высота нижней границы облаков в метрах; квадратными скобками обозначены формы облаков: Ci - перистые, Cs - перисто-слоистые, Cc - перисто-кучевые, Ac - высококучевые, As - высокослоистые, Sc - слоисто-кучевые, Ns - слоисто-дождевые, Cu - кучевые, Cb - кучево-дождевые. Подробнее классификацию облаков см. в Атласе облаков (PDF).
T - Температура воздуха - температура, измеренная на высоте 2 м над землей.
Td - Температура точки росы - температура, при понижении до которой содержащийся в воздухе водяной пар достигнет насыщения.
f - Относительная влажность воздуха - влажноcть воздуха, измеренная на высоте 2 м над землей.
Te - Эффективная температура - температура, которую ощущает одетый по сезону человек в тени. Характеристика душности погоды. При расчете учитывается влияние влажности воздуха и скорости ветра на теплоощущения человека.
Tes - Эффективная температура на солнце - температура, которую ощущает человек, с поправкой на солнечный нагрев. Характеристика знойности погоды. Зависит от высоты солнца над горизонтом, облачности и скорости ветра. Ночью, в пасмурную погоду, а также при ветре 12 м/с и более поправка равна нулю.
P - Атмосферное давление - приведенное к уровню моря атмосферное давление.
Po - Атмосферное давление - измеренное на уровне метеостанции атмосферное давление.
Tmin - Минимальная температура - минимум температуры воздуха на высоте 2 м над землей.
Tmax - Максимальная температура - максимум температуры воздуха на высоте 2 м над землей.
R - Количество осадков - Количество выпавших осадков за период времени, мм. При наведении курсора мыши на число - период времени, за который выпало указанное количество осадков.
R24 - Количество осадков - Количество выпавших осадков за 24 часа, мм.
S - Снежный покров - Высота снежного покрова, см. При наведении курсора мыши на число - состояние снежного покрова и степень покрытия местности в баллах.